Date String (YYYY-MM-DD hh:mm:ss) UTC,Instrument flags,Ambient pressure (hPa),Sample flow (lpm),Bypass flow (lpm),Sample temperature (°C),Ambient temperature (°C),ASC tube jacket temperature (°C),LED temperature (°C),Box temperature (°C),Sample RH (%),Mass concentration (μg/m³),Mass concentration (μg/m³)
DateTimeUTC,F1_M11,P_M11,Q1_M11,Q2_M11,T1_M11,T2_M11,T3_M11,T4_M11,T5_M11,U1_M11,X0_M11,X2_M11
2021-08-14 16:00:00,,0834.4,5.00,0.00,30.3,28.1,00.0,39.0,31.6,33.9,0025.84,0010.32
2021-08-14 16:01:00,,0834.4,4.99,0.00,30.2,26.6,00.0,38.9,31.1,34.4,0024.84,0010.38
2021-08-14 16:02:00,,0834.4,5.02,0.00,30.1,26.2,00.0,39.0,31.0,34.6,0023.92,0010.35
2021-08-14 16:03:00,,0834.4,4.99,0.00,30.1,26.5,00.0,39.0,31.1,34.2,0023.70,0010.31
2021-08-14 16:04:00,,0834.4,5.00,0.00,30.1,27.0,00.0,38.9,31.2,34.0,0024.02,0010.27
2021-08-14 16:05:00,,0834.3,5.00,0.00,30.1,27.3,00.0,38.9,31.3,33.9,0023.48,0010.30
2021-08-14 16:06:00,,0834.4,5.00,0.00,30.1,27.7,00.0,38.9,31.4,33.6,0021.70,0010.28
2021-08-14 16:07:00,,0834.4,5.00,0.00,30.1,28.0,00.0,38.9,31.4,33.8,0020.95,0010.32
2021-08-14 16:08:00,,0834.4,5.01,0.00,30.1,28.2,00.0,38.9,31.5,33.6,0021.50,0010.29
2021-08-14 16:09:00,,0834.4,5.00,0.00,30.1,28.4,00.0,38.9,31.6,33.6,0022.37,0010.32
2021-08-14 16:10:00,,0834.4,4.99,0.00,30.2,28.6,00.0,39.0,31.7,33.9,0022.51,0010.31
2021-08-14 16:11:00,,0834.4,5.01,0.00,30.2,28.3,00.0,39.0,31.6,33.5,0021.72,0010.30
2021-08-14 16:12:00,,0834.3,4.99,0.00,30.1,26.8,00.0,39.0,31.1,33.9,0021.49,0010.26
2021-08-14 16:13:00,,0834.3,5.00,0.00,30.0,26.2,00.0,39.0,30.9,34.2,0022.01,0010.32
2021-08-14 16:14:00,,0834.4,4.99,0.00,29.9,26.4,00.0,38.9,31.0,34.4,0022.13,0010.36
2021-08-14 16:15:00,,0834.3,5.01,0.00,29.8,26.8,00.0,38.9,31.1,34.7,0021.99,0010.40
2021-08-14 16:16:00,,0834.4,5.00,0.00,29.9,27.2,00.0,38.9,31.2,34.3,0022.09,0010.46
2021-08-14 16:17:00,,0834.4,4.99,0.00,29.9,27.6,00.0,38.8,31.3,34.0,0022.06,0010.50
2021-08-14 16:18:00,,0834.4,5.00,0.00,29.9,27.9,00.0,38.8,31.4,34.1,0022.42,0010.51
2021-08-14 16:19:00,,0834.3,5.01,0.00,30.0,28.1,00.0,38.8,31.5,35.2,0021.72,0010.53
2021-08-14 16:20:00,,0834.3,5.00,0.00,30.2,28.3,00.0,38.9,31.6,35.8,0020.42,0010.57
2021-08-14 16:21:00,,0834.3,5.00,0.00,30.5,28.5,00.0,38.9,31.8,34.8,0020.33,0010.52
2021-08-14 16:22:00,,0834.3,5.00,0.00,30.7,27.8,00.0,38.9,31.7,33.8,0020.08,0010.52
2021-08-14 16:23:00,,0834.3,5.01,0.00,30.7,26.5,00.0,38.9,31.2,33.7,0020.10,0010.48
2021-08-14 16:24:00,,0834.3,5.00,0.00,30.7,26.2,00.0,39.0,31.1,34.1,0020.20,0010.45
2021-08-14 16:25:00,,0834.3,4.99,0.00,30.6,26.5,00.0,39.0,31.2,34.1,0021.19,0010.48
2021-08-14 16:26:00,,0834.2,5.00,0.00,30.6,26.9,00.0,39.0,31.2,34.4,0022.04,0010.47
2021-08-14 16:27:00,,0834.3,5.01,0.00,30.6,27.3,00.0,39.0,31.3,34.3,0022.71,0010.52
2021-08-14 16:28:00,,0834.3,5.00,0.00,30.6,27.7,00.0,39.1,31.4,34.8,0023.44,0010.53
2021-08-14 16:29:00,,0834.3,4.98,0.00,30.6,28.0,00.0,39.1,31.6,34.2,0023.04,0010.52
2021-08-14 16:30:00,,0834.3,5.01,0.00,30.7,28.2,00.0,39.1,31.6,34.1,0023.04,0010.56
2021-08-14 16:31:00,,0834.3,4.99,0.00,30.7,28.4,00.0,39.2,31.7,34.3,0023.56,0010.54
2021-08-14 16:32:00,,0834.3,5.01,0.00,30.7,28.4,00.0,39.2,31.7,33.9,0023.31,0010.58
2021-08-14 16:33:00,,0834.3,5.00,0.00,30.7,27.3,00.0,39.2,31.3,33.9,0023.74,0010.62
2021-08-14 16:34:00,,0834.3,5.00,0.00,30.5,26.3,00.0,39.2,31.0,34.2,0024.40,0010.76
2021-08-14 16:35:00,,0834.3,4.99,0.00,30.4,26.3,00.0,39.2,31.0,34.4,0024.66,0010.84
2021-08-14 16:36:00,,0834.3,5.00,0.00,30.3,26.7,00.0,39.2,31.1,34.4,0024.53,0010.88
2021-08-14 16:37:00,,0834.3,5.01,0.00,30.3,27.1,00.0,39.2,31.2,34.3,0023.90,0010.97
2021-08-14 16:38:00,,0834.3,5.01,0.00,30.3,27.5,00.0,39.1,31.3,34.3,0023.78,0010.96
2021-08-14 16:39:00,,0834.3,4.99,0.00,30.3,27.8,00.0,39.1,31.4,34.3,0023.76,0010.98
2021-08-14 16:40:00,,0834.3,5.01,0.00,30.3,28.1,00.0,39.1,31.5,34.1,0023.82,0010.99
2021-08-14 16:41:00,,0834.3,5.00,0.00,30.3,28.3,00.0,39.1,31.6,34.2,0023.75,0011.00
2021-08-14 16:42:00,,0834.3,5.01,0.00,30.3,28.4,00.0,39.1,31.6,34.2,0023.20,0011.04
2021-08-14 16:43:00,,0834.3,4.99,0.00,30.3,27.4,00.0,39.1,31.3,34.3,0023.14,0011.11
2021-08-14 16:44:00,,0834.3,5.00,0.00,30.1,26.3,00.0,39.1,31.0,34.6,0023.03,0011.14
2021-08-14 16:45:00,,0834.3,5.00,0.00,30.1,26.3,00.0,39.1,31.0,34.6,0022.17,0011.06
2021-08-14 16:46:00,,0834.3,4.97,0.00,30.0,26.6,00.0,39.0,31.1,34.9,0021.25,0011.04
2021-08-14 16:47:00,,0834.3,5.02,0.00,30.0,27.0,00.0,39.0,31.2,34.7,0020.16,0010.96
2021-08-14 16:48:00,,0834.3,4.99,0.00,30.0,27.4,00.0,39.0,31.3,34.8,0020.40,0010.95
2021-08-14 16:49:00,,0834.3,5.00,0.00,30.0,27.7,00.0,38.9,31.4,34.9,0020.66,0010.95
2021-08-14 16:50:00,,0834.3,5.00,0.00,30.1,28.0,00.0,38.9,31.5,34.9,0020.60,0011.03
2021-08-14 16:51:00,,0834.3,5.00,0.00,30.2,28.2,00.0,38.9,31.5,34.8,0020.73,0011.12
2021-08-14 16:52:00,,0834.3,5.01,0.00,30.2,28.1,00.0,39.0,31.5,34.8,0020.98,0011.13
2021-08-14 16:53:00,,0834.3,4.99,0.00,30.2,26.8,00.0,38.9,31.1,34.8,0021.04,0011.09
2021-08-14 16:54:00,,0834.3,5.00,0.00,30.1,26.1,00.0,38.9,30.9,35.0,0021.42,0011.08
2021-08-14 16:55:00,,0834.2,5.00,0.00,30.2,26.3,00.0,38.9,31.0,35.2,0022.39,0011.08
2021-08-14 16:56:00,,0834.3,4.99,0.00,30.4,26.7,00.0,38.9,31.3,34.9,0023.29,0011.11
2021-08-14 16:57:00,,0834.3,5.01,0.00,30.6,27.1,00.0,38.9,31.4,34.7,0024.37,0011.10
2021-08-14 16:58:00,,0834.3,4.99,0.00,30.6,27.5,00.0,38.9,31.4,34.5,0024.50,0011.13
2021-08-14 16:59:00,,0834.3,4.99,0.00,30.7,27.8,00.0,38.9,31.5,34.8,0024.75,0011.20
